Temperature
15 15 16 16 18 19 19 19 18 18 17 16 15 16 18 18 18 17 13 13 13 13 13 14 14 14 14 14 14 14 14 14 14 14 14 14 14 14 14 14 14 14 14 14 14 14 14 14 15
15 15 15 17 19 19 19 18 18 17 16 14 14 15 16 15 13 12 12 13 13 13 13 13 13 13 13 13 13 14 14 14 14 14 14 14 14 14 14 14 14 14 14 14 14 14 14 14 14
14 15 16 18 18 19 19 18 17 15 14 14 14 14 14 13 12 11 12 13 13 13 13 13 13 13 13 13 13 13 13 13 13 13 14 14 14 14 14 14 14 14 14 14 14 14 14 14 14
14 14 16 18 17 17 17 17 15 15 14 13 14 14 12 11 11 11 12 12 12 12 12 13 13 13 13 13 13 13 13 13 13 13 13 13 13 13 13 13 13 13 13 13 13 14 14 14 14
14 15 17 17 17 16 16 15 14 15 15 13 13 14 12 11 11 12 12 12 12 12 12 12 12 12 13 13 13 13 13 13 13 13 13 13 13 13 13 13 13 13 13 13 13 13 13 13 13
14 16 17 17 17 16 15 14 14 15 14 13 13 13 12 10 11 11 11 11 12 12 12 12 12 12 12 12 12 13 13 13 13 13 13 13 13 13 13 13 13 13 13 13 13 13 13 13 13
15 16 16 17 16 16 15 13 14 14 14 12 11 13 11 10 10 11 11 11 11 11 11 11 12 12 12 12 12 12 12 12 12 12 12 12 12 13 13 13 13 13 13 13 13 13 13 13 13
13 15 15 15 15 15 14 12 12 12 13 10 10 12 11 10 10 10 10 10 11 11 11 11 11 11 11 12 12 12 12 12 12 12 12 12 12 12 12 12 12 12 12 12 12 12 12 12 12
12 15 15 15 15 14 12 12 10 9 10 9 9 10 9 10 10 10 10 10 10 10 11 11 11 11 11 11 11 11 12 12 11 12 12 12 12 12 12 12 12 12 12 12 12 12 12 12 12
13 14 14 13 13 13 12 11 10 10 11 10 9 9 9 9 9 9 9 9 10 10 10 10 10 11 11 11 11 11 11 11 11 11 11 11 11 11 11 11 11 11 12 12 12 12 12 12 11
12 13 12 11 10 11 11 10 9 11 11 10 9 9 8 8 8 8 8 9 9 9 10 10 10 10 10 10 10 10 11 11 11 11 11 11 11 11 11 11 11 11 11 11 11 11 11 11 11
11 10 10 10 9 9 10 9 9 9 9 8 8 8 8 8 8 8 8 8 8 8 9 9 9 10 10 10 10 10 10 10 10 10 10 10 10 10 10 11 11 11 11 11 11 11 11 11 11
10 10 8 8 8 8 8 8 8 8 8 8 8 8 8 7 7 7 7 8 8 8 8 9 9 9 9 9 9 9 10 10 10 10 10 10 10 10 10 10 10 10 10 10 10 10 10 10 10
9 9 8 8 8 8 8 8 8 8 7 7 7 7 7 7 7 7 7 7 7 8 8 8 8 8 9 9 9 9 9 9 9 9 9 9 9 9 9 10 10 10 10 10 10 10 10 10 10
8 9 9 9 8 8 8 9 9 7 7 6 7 7 7 7 6 6 7 7 7 7 7 8 8 8 8 8 8 9 9 9 9 9 9 9 9 9 9 9 9 9 9 9 9 9 9 9 9
9 10 10 10 9 8 9 11 10 7 6 7 6 6 6 6 6 6 6 6 6 6 7 7 7 7 7 8 8 8 8 8 8 8 8 8 8 9 9 9 9 9 9 9 9 9 9 9 9
10 11 10 10 8 8 9 10 9 6 6 7 6 6 5 5 5 5 6 6 6 6 6 6 7 7 7 7 7 8 8 8 8 8 8 8 8 8 8 8 8 8 8 8 8 8 8 8 8
10 10 10 10 9 8 8 9 9 6 6 6 6 5 5 5 5 5 5 5 5 5 5 6 6 6 7 7 7 7 7 7 7 7 7 7 7 7 8 8 8 8 8 8 8 8 8 8 8
9 9 9 9 8 7 8 8 8 7 6 6 6 5 5 4 4 4 5 5 5 5 5 5 5 6 6 6 6 6 7 7 7 7 7 7 7 7 7 7 7 7 7 7 7 7 7 7 7
8 8 8 8 7 7 7 7 8 7 6 6 5 5 5 4 4 4 4 4 4 4 5 5 5 5 5 6 6 6 6 6 6 6 6 6 6 6 7 6 6 6 7 7 7 7 7 6 6
7 7 7 7 6 6 6 8 8 7 6 5 4 4 4 4 3 3 4 4 4 4 4 4 4 5 5 5 5 5 5 5 6 6 6 6 6 6 6 6 6 6 6 6 6 6 6 6 6
7 6 6 5 6 8 7 8 9 7 6 6 5 4 3 3 3 3 3 3 3 3 4 4 4 4 4 4 5 5 5 5 5 5 5 5 5 5 5 5 5 5 5 5 5 5 5 5 5
6 5 5 5 6 6 6 7 9 7 6 6 5 4 3 3 2 2 2 3 3 3 3 3 3 3 4 4 4 4 4 4 4 4 4 4 4 4 4 5 5 5 4 5 5 5 5 5 5
5 5 4 5 6 6 6 6 9 8 6 6 5 3 2 2 2 2 2 2 2 3 3 3 3 3 3 3 3 3 3 4 4 4 4 4 4 4 4 4 4 4 4 4 4 4 4 4 4
5 6 7 7 7 8 5 5 7 6 5 4 4 3 2 2 2 2 2 2 2 2 2 2 2 2 3 2 2 3 3 3 3 3 3 3 3 3 3 3 3 3 3 3 3 4 4 4 4
4 5 6 7 8 8 5 5 7 4 2 2 2 2 2 1 1 1 1 1 1 1 1 1 2 2 2 2 2 2 2 2 2 2 2 2 2 3 3 3 3 3 3 3 3 3 3 3 3
4 5 4 5 3 4 6 6 6 4 3 2 1 1 1 0 1 1 1 1 1 1 1 1 1 1 1 1 1 1 1 1 1 1 2 2 2 2 2 2 2 2 2 2 2 3 3 3 3
4 4 4 4 5 6 7 6 7 4 3 2 1 1 0 -0 -0 0 0 0 0 0 0 0 0 0 0 0 0 0 1 1 1 1 1 1 1 1 1 2 2 2 2 2 2 2 2 2 2
3 3 3 4 4 5 6 7 5 4 3 2 1 0 -0 -0 -0 -0 -0 -0 -0 -0 -0 -0 -0 -0 -0 -0 -0 0 0 0 0 0 0 0 0 1 1 1 1 1 1 1 1 1 2 2 2
2 3 3 4 4 3 5 6 3 2 1 1 0 -1 -1 -1 -1 -1 -0 -1 -1 -1 -1 -1 -1 -1 -1 -1 -1 -0 -0 -0 -0 -0 -0 -0 0 0 0 0 0 0 1 1 1 1 1 1 1
Wind_Speed
4 2 1 2 3 4 7 4 3 3 2 1 0 1 2 1 1 1 3 3 2 1 2 3 3 5 7 8 9 9 10 10 10 9 9 9 9 10 10 10 10 11 11 12 12 13 13 13 13
2 1 2 2 5 7 6 4 4 2 1 1 1 1 1 0 2 3 2 2 1 1 3 3 4 6 7 8 9 10 10 10 10 9 9 9 9 10 10 10 10 10 11 11 12 12 13 12 12
0 1 2 3 5 7 4 2 2 1 1 0 1 1 1 1 2 2 3 1 1 2 3 3 4 6 7 8 9 10 10 10 9 9 9 9 9 10 10 10 10 10 10 11 11 12 12 12 12
1 2 2 4 8 6 3 0 1 2 1 0 1 1 1 2 2 3 2 2 2 2 3 4 4 6 7 8 9 9 9 9 9 9 9 9 9 10 10 10 10 10 10 11 11 11 12 12 12
0 2 4 6 8 5 3 2 2 2 2 1 2 1 1 2 4 3 3 3 3 2 2 3 4 5 7 7 8 9 8 9 9 9 9 9 9 10 10 10 10 11 11 11 11 11 11 11 11
2 3 6 9 8 5 4 3 3 3 2 1 1 2 1 2 3 3 3 2 3 2 2 2 3 4 6 6 7 8 8 8 8 8 9 9 9 9 9 10 10 10 10 11 11 10 11 11 11
3 3 6 8 7 6 4 3 3 4 4 2 2 2 1 1 3 2 2 2 3 3 2 2 2 3 5 6 7 6 7 8 7 7 8 8 9 9 9 9 9 9 10 10 11 10 10 10 10
1 3 5 6 8 6 3 2 1 3 3 0 2 3 2 0 1 2 2 2 2 3 3 2 1 2 4 5 6 6 7 7 7 7 7 8 8 8 8 8 8 8 9 10 10 10 9 9 9
2 4 7 7 6 4 3 3 1 1 1 1 2 3 3 1 1 1 1 2 2 2 2 2 2 2 2 3 4 5 6 6 6 6 6 6 5 5 6 7 8 8 9 9 10 9 9 8 8
3 6 6 3 3 2 3 3 2 3 4 4 3 2 1 1 2 1 1 0 1 1 1 2 1 1 2 2 3 3 3 4 4 4 4 4 4 4 4 6 7 7 8 9 9 8 7 5 5
2 5 3 2 2 2 3 3 3 5 6 6 5 3 2 3 2 2 2 2 1 1 1 1 1 1 2 2 2 2 2 3 3 4 3 3 4 3 3 3 4 4 4 5 6 6 4 4 4
3 3 3 3 2 3 4 3 4 6 6 5 4 3 3 4 3 3 3 2 1 2 1 1 1 0 1 2 2 2 2 2 2 2 3 3 2 2 2 2 2 2 2 2 3 3 3 3 4
4 3 2 2 1 2 3 5 5 6 6 4 3 3 4 4 3 3 2 2 1 2 2 1 1 0 1 2 2 2 2 1 2 2 2 2 2 2 2 1 2 2 2 2 2 2 3 3 3
2 2 2 3 4 4 5 6 6 6 4 3 3 4 4 4 4 3 2 2 3 3 3 2 1 1 1 1 2 2 2 1 1 2 1 2 2 2 1 1 1 1 1 1 2 2 2 2 2
2 2 3 3 3 2 4 7 7 6 4 5 5 4 4 3 3 3 3 3 3 3 3 3 2 1 1 1 2 2 2 2 1 1 1 2 2 2 2 1 1 1 2 2 2 3 2 3 2
2 3 4 2 2 3 5 9 4 3 5 6 5 5 4 4 4 3 3 3 3 2 2 3 2 2 1 1 2 2 3 2 2 1 2 1 2 2 2 1 1 1 2 2 2 2 2 2 2
2 4 6 4 2 3 6 10 5 3 5 7 6 5 5 4 3 3 3 3 3 2 2 2 2 2 2 1 2 3 3 3 2 2 2 1 2 2 2 2 1 2 2 2 2 2 2 2 2
4 5 6 6 3 5 8 11 9 5 6 7 7 6 6 5 4 3 3 2 2 2 1 1 1 2 2 1 2 2 3 2 2 2 2 2 2 2 2 1 2 2 2 2 2 3 3 2 2
4 6 9 7 4 6 10 12 12 7 7 8 8 7 6 5 4 3 2 2 1 1 1 1 2 2 2 2 2 3 2 2 1 1 1 2 2 2 2 1 1 2 2 2 3 3 3 2 2
4 6 7 6 4 5 9 13 11 8 7 7 7 6 6 5 4 3 2 2 2 1 1 1 2 3 3 2 2 2 2 2 2 1 1 1 2 2 2 2 2 2 2 3 2 3 3 2 2
5 6 7 8 7 5 7 8 7 4 4 4 5 6 6 6 5 4 3 3 2 2 2 2 3 3 3 3 2 2 2 2 2 2 2 1 2 2 3 3 3 2 3 3 3 3 4 4 3
6 4 6 7 6 4 3 6 6 4 4 4 4 5 5 5 5 4 3 4 3 3 3 3 3 4 3 3 3 4 4 3 3 2 2 2 2 2 3 3 3 3 2 3 3 3 3 4 4
4 3 5 5 5 6 5 6 7 3 5 5 4 4 4 5 5 5 5 5 4 3 3 3 3 4 3 3 4 4 4 3 3 3 3 3 2 3 3 3 3 3 3 3 3 4 4 4 4
2 2 2 3 4 6 5 6 7 3 3 3 3 3 4 5 5 5 4 3 3 3 3 3 3 4 3 4 4 5 5 5 5 5 4 3 3 3 4 4 4 4 3 4 4 4 5 4 4
1 2 3 3 4 5 1 5 7 3 2 3 3 4 4 4 4 4 4 3 3 3 3 4 4 5 4 4 4 5 6 6 7 6 6 5 4 4 5 4 4 4 4 4 4 4 5 5 5
2 2 3 4 5 5 3 6 4 1 2 3 3 3 4 4 3 4 5 4 4 4 4 4 5 5 5 5 5 5 6 5 5 6 6 6 5 5 5 5 5 5 5 5 5 5 5 5 6
2 3 2 3 4 6 6 6 6 2 4 4 4 4 4 5 5 5 5 4 5 5 5 5 5 5 5 5 5 5 5 6 6 6 6 6 6 5 6 6 6 6 6 6 6 5 6 6 6
2 2 2 4 5 7 7 7 5 3 4 4 4 4 5 6 6 6 5 5 5 5 5 5 5 5 5 5 5 4 5 5 6 6 7 7 7 7 7 7 7 7 7 7 7 6 6 6 6
3 4 4 4 4 6 8 6 1 3 2 4 5 5 6 6 7 6 5 5 5 5 5 5 4 4 5 5 5 5 5 5 5 6 7 7 8 8 8 8 8 8 8 7 7 7 7 8 7
4 5 6 5 6 6 7 8 1 2 3 5 6 6 6 6 6 6 6 5 5 5 5 5 4 4 5 5 5 5 5 5 6 6 7 7 8 8 8 8 8 8 8 8 8 8 8 9 9
Wind_Direction
341 334 267 220 212 222 232 218 216 185 181 120 31 233 214 224 273 58 51 73 41 137 168 164 139 119 117 123 121 117 115 113 114 111 108 105 102 100 96 95 93 93 92 91 91 90 90 89 88
339 310 208 214 228 226 225 211 214 211 76 113 165 229 204 120 20 37 48 34 42 132 156 157 124 118 114 120 120 117 115 112 110 112 109 106 104 102 97 93 92 93 93 91 91 90 91 89 88
38 329 211 204 225 234 216 176 194 142 95 241 184 289 285 25 35 30 14 33 87 117 140 137 115 119 116 115 119 117 115 112 109 110 108 106 103 101 97 93 93 94 94 93 91 90 91 91 91
185 162 193 223 225 235 250 189 151 168 181 278 247 154 94 33 15 5 25 83 99 101 123 129 111 115 117 116 115 117 116 114 111 110 107 105 103 98 95 91 92 95 96 96 96 95 93 91 92
153 196 203 221 233 228 234 269 202 214 200 211 240 214 155 51 18 29 61 86 90 87 97 118 119 115 112 113 117 113 116 116 113 110 107 104 101 99 96 92 91 94 95 93 94 97 96 93 92
165 204 219 228 226 223 223 231 215 220 216 227 246 232 176 61 32 37 48 80 82 81 84 102 125 127 115 110 113 117 115 115 116 116 113 107 100 95 96 94 95 95 96 96 93 96 97 95 93
201 206 230 234 230 227 220 206 219 229 229 243 281 242 185 124 30 36 51 62 71 74 78 85 107 144 132 118 106 111 115 110 107 112 111 108 103 97 94 95 96 97 98 100 95 89 96 98 95
218 198 222 226 229 231 193 185 232 254 246 283 264 243 227 332 29 48 60 59 63 57 58 59 75 133 136 129 114 106 103 103 103 104 108 108 105 101 96 95 98 101 101 100 96 89 88 97 98
211 217 229 224 228 221 183 201 217 301 206 220 255 287 328 93 123 99 81 54 49 45 44 50 67 87 122 127 124 118 108 102 107 109 108 116 121 114 107 95 92 97 101 101 98 93 88 94 99
208 225 233 236 242 224 199 228 224 213 233 240 245 265 290 173 164 167 198 261 338 323 19 29 37 86 108 111 127 128 126 122 118 115 117 124 124 116 112 103 93 93 100 104 101 98 94 100 103
201 230 229 237 256 248 228 241 242 236 250 253 250 242 220 196 191 202 223 234 273 285 352 355 351 78 113 111 112 121 120 125 125 114 112 130 133 124 116 122 110 105 103 108 111 102 95 100 98
193 232 241 255 262 253 246 237 242 244 260 286 270 240 216 205 207 220 236 256 296 328 324 323 337 20 122 126 115 112 116 115 106 119 115 125 122 122 117 113 120 120 116 109 112 103 98 106 109
210 223 245 260 252 249 248 251 256 259 268 273 248 217 210 216 226 236 250 270 288 301 313 299 309 266 198 156 135 124 113 110 123 118 121 129 129 137 130 115 127 130 128 134 120 119 111 111 109
181 207 249 277 267 256 250 261 252 255 249 235 213 211 217 224 235 245 260 269 277 283 301 281 266 217 179 168 155 137 127 119 125 122 129 155 149 139 130 139 129 130 147 165 149 128 122 121 109
186 233 257 258 256 242 264 259 242 245 229 228 227 226 230 237 240 247 260 265 273 275 290 265 241 202 174 137 137 107 96 101 94 122 158 169 162 163 158 163 153 147 166 158 137 127 119 121 113
198 228 251 255 262 245 247 263 253 217 220 234 239 241 239 247 252 259 265 269 278 281 297 287 233 193 174 135 130 111 98 91 81 98 121 150 170 181 178 171 160 162 166 154 142 141 137 140 133
206 252 262 272 259 264 240 266 264 234 239 244 244 244 242 251 264 272 270 267 271 271 288 302 235 205 191 152 132 125 113 101 89 88 91 123 145 180 184 180 164 158 151 153 156 165 161 153 141
262 265 265 272 302 276 257 265 269 252 249 251 249 248 246 244 257 270 272 268 259 254 263 303 239 223 206 177 160 139 124 112 104 94 91 107 118 152 149 159 165 154 145 152 167 174 162 160 152
265 264 275 281 307 286 266 273 276 267 254 255 253 249 245 245 253 255 258 263 265 238 252 303 253 224 217 216 206 182 177 167 145 95 117 136 137 139 123 122 139 154 162 166 172 175 166 161 156
255 269 283 292 314 289 284 282 278 271 257 256 254 244 245 249 244 248 255 260 262 257 253 267 260 233 227 231 228 208 191 182 168 151 146 155 152 148 139 147 160 163 163 162 165 167 181 177 180
263 261 279 292 308 279 291 281 262 263 252 258 257 251 250 243 242 242 254 262 264 266 255 248 253 231 227 220 209 185 177 182 195 201 196 202 188 173 172 174 165 173 175 183 185 185 181 187 192
270 270 277 286 290 287 304 288 276 271 278 275 265 256 252 250 251 247 254 266 265 263 261 253 255 242 226 211 203 199 198 207 215 213 220 219 203 191 191 187 176 178 186 190 194 192 194 190 192
280 308 276 270 268 277 266 265 278 279 280 278 272 271 266 264 261 256 252 252 259 266 264 261 258 256 234 223 212 205 204 209 208 209 214 221 218 210 204 196 189 188 199 203 202 200 198 198 200
285 298 260 236 240 257 251 250 278 266 261 289 303 294 289 279 271 268 269 262 262 273 271 263 258 262 256 236 222 218 211 206 208 213 215 222 224 221 218 211 206 200 206 215 214 212 208 207 209
318 295 284 256 238 255 227 246 262 287 269 280 302 307 299 293 285 279 276 270 272 282 283 272 258 258 254 245 235 228 222 214 215 217 219 221 227 230 224 220 218 213 213 216 218 214 217 214 212
244 243 262 277 276 288 259 249 266 333 309 303 297 306 318 305 292 279 272 267 268 276 281 275 262 259 252 244 244 243 232 221 224 223 224 223 227 230 230 225 221 219 217 217 217 216 220 218 217
213 213 261 264 277 272 261 272 281 272 296 302 304 316 319 312 302 288 281 278 275 279 281 277 271 266 258 251 248 247 245 235 230 228 229 229 230 234 228 225 224 223 220 221 218 217 220 218 221
269 197 201 231 267 271 271 264 268 284 292 308 310 304 309 315 314 306 296 289 288 288 289 289 279 271 268 262 257 257 253 249 239 231 232 231 230 231 227 223 223 225 222 221 220 222 223 218 223
198 206 221 232 252 263 278 273 266 261 276 292 299 306 312 318 318 310 309 305 300 300 296 295 291 286 280 273 266 258 255 250 247 240 238 235 234 232 229 224 223 223 223 223 221 225 226 222 223
251 232 215 239 246 244 265 273 61 292 307 304 308 315 314 316 320 316 315 315 310 304 299 296 293 289 285 279 270 262 259 253 248 246 245 239 235 233 232 227 223 222 222 222 223 227 229 224 223
Height
1520 1520 1522 1524 1523 1520 1517 1516 1518 1520 1522 1525 1525 1525 1523 1523 1524 1529 1529 1527 1528 1529 1531 1532 1534 1535 1536 1537 1537 1538 1538 1539 1540 1541 1541 1542 1543 1543 1543 1543 1543 1544 1544 1544 1544 1543 1543 1543 1543
1520 1521 1524 1523 1519 1517 1516 1516 1519 1521 1524 1526 1526 1526 1525 1526 1527 1528 1527 1527 1528 1530 1531 1532 1534 1535 1536 1537 1537 1538 1539 1539 1540 1541 1541 1542 1543 1543 1544 1544 1544 1544 1544 1544 1544 1544 1544 1544 1544
1520 1521 1524 1520 1517 1514 1514 1518 1520 1524 1526 1526 1526 1526 1527 1527 1527 1527 1527 1527 1528 1530 1531 1532 1534 1535 1536 1537 1538 1538 1539 1540 1540 1541 1542 1542 1543 1544 1544 1544 1545 1545 1545 1545 1545 1545 1545 1545 1545
1521 1523 1524 1520 1517 1517 1517 1520 1523 1524 1526 1526 1527 1527 1527 1528 1527 1527 1527 1528 1529 1530 1531 1532 1533 1535 1536 1536 1537 1538 1539 1540 1541 1541 1542 1542 1543 1544 1544 1545 1545 1545 1545 1545 1546 1546 1546 1546 1546
1521 1522 1520 1518 1517 1518 1521 1523 1524 1523 1525 1526 1527 1526 1527 1527 1526 1526 1527 1528 1529 1529 1531 1532 1533 1534 1535 1536 1537 1538 1539 1540 1540 1541 1542 1542 1543 1544 1544 1545 1545 1545 1546 1546 1546 1546 1546 1547 1547
1522 1520 1517 1514 1515 1519 1522 1525 1525 1524 1525 1527 1527 1526 1527 1527 1526 1526 1527 1528 1528 1529 1530 1531 1533 1534 1535 1536 1536 1537 1538 1539 1540 1541 1542 1543 1543 1544 1544 1545 1545 1546 1546 1546 1546 1546 1547 1547 1548
1522 1518 1515 1514 1515 1517 1522 1524 1524 1523 1525 1527 1527 1526 1526 1526 1525 1526 1526 1527 1528 1529 1530 1531 1532 1533 1534 1535 1536 1537 1538 1538 1540 1541 1541 1542 1543 1544 1544 1545 1545 1546 1546 1546 1546 1546 1547 1548 1548
1520 1520 1517 1516 1516 1516 1522 1524 1525 1525 1525 1527 1527 1526 1526 1526 1525 1525 1526 1527 1528 1528 1529 1530 1531 1532 1533 1534 1535 1536 1537 1538 1539 1540 1540 1541 1542 1543 1544 1544 1545 1545 1546 1546 1546 1546 1547 1548 1548
1520 1520 1515 1515 1516 1517 1522 1523 1525 1525 1525 1525 1525 1525 1525 1525 1524 1525 1525 1526 1526 1527 1528 1528 1529 1530 1532 1533 1534 1535 1536 1537 1538 1539 1540 1541 1541 1542 1543 1544 1544 1545 1545 1546 1546 1547 1547 1548 1549
1520 1516 1515 1518 1519 1519 1522 1523 1524 1524 1523 1524 1524 1523 1523 1523 1523 1524 1524 1524 1524 1525 1526 1527 1528 1529 1530 1531 1532 1533 1534 1535 1536 1537 1538 1539 1540 1541 1542 1543 1543 1544 1545 1545 1546 1546 1547 1548 1549
1520 1518 1519 1521 1522 1521 1522 1522 1523 1522 1521 1521 1522 1522 1522 1522 1522 1522 1522 1523 1523 1523 1524 1525 1526 1527 1528 1529 1530 1531 1532 1533 1535 1536 1537 1538 1539 1540 1541 1542 1542 1543 1544 1545 1545 1546 1547 1547 1548
1521 1521 1522 1521 1522 1522 1521 1521 1522 1521 1520 1520 1520 1520 1520 1520 1521 1521 1521 1521 1521 1521 1522 1523 1524 1525 1526 1527 1528 1529 1531 1532 1533 1534 1535 1536 1537 1538 1539 1540 1541 1541 1542 1543 1543 1544 1545 1546 1547
1520 1521 1522 1522 1521 1521 1521 1521 1520 1518 1518 1518 1518 1518 1518 1519 1519 1519 1519 1519 1519 1519 1520 1521 1522 1522 1523 1525 1526 1527 1528 1530 1531 1532 1533 1534 1535 1536 1537 1538 1539 1540 1540 1541 1542 1543 1544 1545 1545
1521 1521 1521 1521 1520 1520 1520 1519 1519 1515 1516 1516 1516 1516 1517 1517 1517 1518 1517 1517 1517 1517 1518 1518 1519 1520 1521 1522 1524 1525 1526 1528 1529 1530 1531 1532 1533 1534 1535 1536 1537 1538 1539 1540 1540 1541 1542 1543 1544
1522 1521 1520 1519 1519 1520 1520 1515 1514 1514 1514 1514 1514 1514 1514 1515 1515 1515 1515 1515 1515 1515 1515 1516 1517 1517 1518 1520 1521 1522 1524 1525 1526 1527 1528 1530 1531 1532 1533 1534 1535 1535 1536 1537 1538 1539 1540 1541 1542
1520 1517 1514 1516 1518 1518 1520 1508 1510 1512 1512 1512 1512 1512 1512 1513 1513 1513 1513 1513 1513 1512 1512 1512 1514 1515 1516 1517 1519 1520 1521 1523 1524 1525 1526 1527 1528 1529 1530 1531 1532 1533 1534 1535 1536 1537 1538 1538 1539
1515 1513 1511 1513 1516 1516 1515 1507 1509 1510 1510 1510 1510 1510 1510 1510 1510 1510 1510 1510 1510 1510 1509 1509 1511 1512 1513 1515 1516 1517 1519 1520 1521 1522 1523 1524 1525 1526 1527 1528 1529 1530 1531 1532 1533 1534 1536 1536 1537
1512 1511 1511 1511 1514 1515 1511 1506 1506 1509 1509 1508 1507 1507 1508 1507 1507 1507 1507 1507 1507 1507 1507 1507 1508 1509 1510 1512 1513 1514 1516 1517 1518 1519 1520 1521 1522 1523 1524 1525 1526 1527 1528 1529 1530 1532 1533 1534 1535
1516 1515 1512 1511 1516 1515 1508 1504 1503 1505 1505 1505 1504 1505 1505 1505 1506 1505 1505 1504 1504 1504 1504 1504 1505 1506 1508 1509 1510 1511 1512 1513 1515 1516 1517 1518 1519 1520 1521 1522 1523 1524 1525 1526 1527 1528 1530 1531 1532
1518 1516 1513 1512 1516 1514 1508 1503 1500 1501 1501 1502 1502 1502 1502 1503 1503 1503 1502 1502 1502 1501 1501 1502 1503 1504 1505 1506 1507 1508 1509 1510 1512 1513 1514 1515 1516 1517 1518 1519 1520 1521 1522 1523 1524 1525 1526 1528 1529
1517 1516 1515 1515 1515 1513 1510 1496 1494 1497 1499 1500 1500 1500 1500 1500 1500 1500 1500 1500 1499 1499 1499 1499 1500 1501 1502 1503 1504 1505 1506 1507 1509 1509 1511 1512 1513 1514 1515 1516 1517 1518 1519 1520 1520 1521 1523 1524 1526
1516 1519 1519 1518 1514 1506 1510 1496 1488 1494 1496 1497 1498 1498 1497 1498 1498 1497 1497 1496 1496 1496 1496 1497 1497 1497 1498 1499 1500 1501 1502 1503 1504 1506 1507 1508 1509 1510 1511 1513 1513 1514 1515 1516 1517 1518 1519 1521 1522
1519 1521 1520 1519 1515 1511 1508 1504 1486 1492 1492 1493 1495 1496 1496 1495 1495 1495 1494 1494 1494 1493 1493 1494 1494 1494 1495 1495 1496 1498 1499 1500 1501 1502 1503 1504 1505 1507 1508 1509 1510 1511 1512 1513 1514 1515 1516 1517 1518
1522 1522 1520 1518 1513 1506 1504 1504 1485 1487 1492 1493 1494 1494 1494 1494 1493 1492 1492 1492 1491 1491 1491 1491 1491 1490 1491 1492 1492 1493 1495 1496 1497 1498 1499 1500 1501 1503 1504 1505 1506 1507 1508 1510 1510 1511 1512 1513 1515
1521 1517 1509 1504 1500 1494 1508 1505 1490 1490 1493 1494 1494 1494 1493 1492 1491 1490 1489 1488 1488 1487 1487 1487 1487 1487 1487 1487 1488 1489 1490 1492 1493 1494 1495 1496 1497 1498 1499 1501 1502 1503 1504 1506 1507 1508 1508 1509 1511
1521 1519 1513 1507 1497 1492 1506 1498 1488 1494 1495 1494 1493 1493 1492 1490 1489 1488 1487 1486 1485 1485 1485 1484 1483 1483 1483 1484 1484 1485 1486 1487 1488 1489 1490 1491 1493 1494 1495 1496 1497 1499 1500 1501 1502 1503 1504 1505 1506
1520 1519 1522 1519 1520 1514 1494 1493 1490 1492 1492 1492 1491 1490 1489 1488 1487 1486 1485 1484 1483 1482 1481 1481 1480 1479 1479 1480 1480 1481 1482 1483 1483 1484 1486 1487 1488 1489 1490 1491 1492 1494 1495 1496 1497 1499 1500 1501 1502
1523 1521 1521 1517 1510 1497 1488 1490 1483 1487 1489 1490 1490 1489 1488 1487 1485 1484 1483 1482 1481 1480 1479 1478 1477 1476 1475 1476 1476 1476 1476 1477 1478 1479 1480 1481 1483 1484 1485 1486 1487 1489 1490 1491 1492 1493 1494 1496 1497
1522 1522 1519 1515 1514 1503 1490 1482 1485 1487 1488 1489 1489 1489 1487 1485 1484 1482 1480 1479 1478 1477 1476 1474 1473 1472 1471 1471 1472 1472 1472 1472 1473 1474 1475 1476 1477 1478 1479 1480 1481 1483 1484 1485 1486 1487 1489 1490 1491
1520 1517 1517 1513 1511 1512 1499 1487 1488 1490 1490 1490 1489 1488 1487 1485 1482 1480 1478 1476 1475 1473 1472 1471 1470 1469 1468 1468 1467 1467 1467 1467 1468 1469 1470 1471 1472 1473 1473 1474 1475 1477 1478 1479 1480 1482 1483 1484 1485